Location: Easter Hill Village
(37.9235°N, 122.3444°W)
Time: 02:33:58
(UTC+00:00)

USA 215 - Pass Details

Date: 16 September 2019
Orbit: 1102 x 1106 km, 123.0° (Epoch: 14 September)

Event Time Altitude Azimuth Distance (km) Brightness Sun altitude
Rises 12:53:21 0° 41° (NE) 3,924 7.1 -12.2°
Reaches altitude 10° 12:55:55 10° 36° (NE) 2,964 6.3 -11.7°
Maximum altitude 13:02:07 48° 325° (NW) 1,412 3.7 -10.6°
Enters shadow 13:08:04 11° 254° (WSW) 2,871 4.8 -9.4°
